Theta_e
354 356 358 358 358 359 357 357 361 362 363 361 363 363 363 363 363 362 363 363 356 353 354 351 354 355 353 352 351 354 355 354 356 355 354 354 357 363 360 360 359 360 359 359 359 358 358 357 358 358 358 358 358 358 358 358 358 358 358 359 359 359 358 359 359 359 359 358 358 358 358 357 358 358 357 357 357 358 358 358 358 357 358 358 358
356 357 357 358 356 359 360 360 360 362 360 362 363 362 360 360 362 364 361 361 358 357 356 351 351 350 352 352 351 351 355 354 356 356 358 356 356 361 361 361 360 361 361 361 360 361 361 361 361 360 360 361 361 362 362 362 361 361 361 362 362 362 362 362 362 361 361 360 360 359 360 360 359 359 359 359 360 359 359 359 359 359 359 359 359
357 357 358 357 359 361 360 362 360 360 362 362 365 364 363 363 363 362 363 363 359 357 355 354 353 351 352 351 350 353 353 356 355 355 354 358 360 361 367 361 360 360 362 362 362 362 362 363 363 363 363 363 363 363 363 363 363 363 363 363 364 364 364 364 364 364 363 362 361 361 361 361 362 361 361 361 361 361 361 361 361 361 361 361 360
361 360 359 359 360 359 361 363 363 363 366 365 364 366 366 366 365 365 365 364 360 356 358 353 354 350 353 348 352 353 352 356 353 352 355 360 361 362 363 366 362 361 361 362 363 363 364 364 364 365 365 365 365 365 366 366 366 365 366 366 366 366 366 366 365 364 364 363 363 363 363 363 363 363 363 362 362 362 362 362 361 361 361 360 360
365 362 362 360 361 361 361 365 366 367 366 364 364 367 366 363 365 365 362 362 357 356 355 353 351 353 353 349 351 352 354 356 357 358 355 357 360 360 362 362 365 364 362 362 362 363 363 364 365 366 367 367 366 367 367 367 367 367 367 367 367 368 368 367 367 367 366 366 366 366 366 366 364 363 363 363 363 363 363 363 363 362 361 361 361
367 366 362 361 363 364 363 364 368 368 367 368 364 364 364 364 362 360 359 359 354 356 355 353 352 352 353 351 354 356 357 354 355 354 356 357 358 362 360 361 362 365 367 365 363 363 363 364 365 365 365 366 367 367 367 368 368 368 368 368 368 368 369 368 367 368 368 368 368 368 367 366 365 365 364 364 365 364 364 364 364 363 362 362 362
367 365 364 362 361 361 362 364 369 370 365 364 365 366 366 364 361 358 359 356 355 355 354 353 351 350 354 356 354 355 357 354 355 355 355 359 360 357 361 361 359 362 363 361 369 363 365 365 366 366 365 365 366 367 367 368 369 369 369 369 369 368 368 367 368 368 368 368 368 368 368 366 367 367 366 366 365 365 364 363 363 363 363 363 362
366 366 362 363 361 361 363 367 369 368 365 364 368 365 365 363 365 362 358 353 355 353 354 352 351 349 352 355 355 355 356 355 355 354 353 358 359 359 360 360 362 360 359 361 361 373 364 365 364 364 364 366 366 366 367 367 367 367 368 368 368 369 369 369 370 369 368 368 368 368 368 368 367 366 366 366 365 364 364 363 362 362 362 361 359
367 367 364 364 361 363 364 367 369 367 367 366 365 365 364 357 365 366 363 355 351 350 351 353 350 350 350 351 353 356 357 357 355 354 353 357 358 355 356 359 360 358 365 360 363 363 369 365 366 365 364 365 365 365 364 365 366 367 367 367 367 368 369 369 370 370 370 369 370 369 368 367 366 365 365 365 365 364 363 361 359 356 354 352 351
369 369 367 365 365 366 366 367 368 369 368 365 365 365 365 361 363 364 363 358 351 351 349 349 347 347 350 349 353 353 353 356 356 356 356 356 357 356 357 356 357 357 357 360 358 362 363 369 364 365 366 366 366 365 364 365 366 366 365 367 369 370 371 371 371 371 370 370 369 366 366 365 365 364 365 364 364 363 360 358 355 353 352 352 351
369 369 370 365 365 365 367 365 367 365 368 364 364 365 366 363 362 364 364 358 354 354 352 352 347 348 347 349 351 354 356 352 357 356 354 353 352 358 352 358 356 358 362 361 356 361 363 366 364 366 374 366 368 365 364 365 365 365 366 369 371 373 372 372 371 370 370 369 366 366 365 364 365 365 364 364 364 360 358 355 354 352 350 350 350
368 368 369 368 366 365 366 367 365 367 366 364 364 364 364 363 362 360 359 357 356 355 353 354 351 351 351 351 351 353 355 354 355 354 355 354 354 355 352 353 357 357 355 357 359 356 361 364 365 362 365 369 364 368 366 364 365 365 368 371 372 374 373 371 371 369 369 368 367 366 365 365 365 364 364 364 362 359 356 354 353 351 350 348 348
368 370 369 366 368 366 367 367 366 367 367 366 365 365 365 363 363 364 356 355 353 354 353 354 351 347 353 350 352 354 353 355 353 351 351 350 351 352 351 354 355 355 359 357 358 358 359 363 363 365 364 369 376 366 366 368 366 367 369 370 372 373 373 370 370 369 369 369 368 366 365 365 365 364 364 363 360 357 355 354 353 350 349 347 347
370 372 372 370 367 364 367 365 364 366 367 366 366 364 364 363 362 360 358 353 351 353 352 354 347 344 344 343 346 350 354 352 350 348 349 350 348 352 352 350 348 351 354 360 361 360 355 360 364 362 366 366 366 368 372 378 374 365 368 370 374 372 370 369 369 369 370 370 367 366 366 365 364 364 363 362 358 356 356 354 352 350 348 347 347
372 371 371 369 367 367 367 367 367 366 366 365 365 364 363 361 363 359 355 356 353 354 357 357 345 347 350 347 341 340 347 347 349 348 347 348 349 342 349 349 348 351 354 357 358 358 355 359 361 365 368 367 365 367 370 369 368 367 367 366 364 368 369 368 367 367 369 370 368 366 366 365 364 364 362 361 359 356 355 354 352 351 349 347 346
369 368 369 369 368 367 367 365 367 367 365 364 364 363 365 364 363 361 359 352 351 352 355 358 356 351 341 342 342 342 336 343 347 348 348 347 348 345 346 347 346 352 357 355 348 358 360 362 360 366 368 368 369 367 367 365 371 374 371 373 363 363 367 366 367 366 367 369 368 367 367 365 364 364 361 360 361 358 355 353 352 351 350 346 346
369 370 369 370 369 369 366 367 367 367 366 364 364 362 361 365 363 362 359 354 350 352 353 355 356 359 351 345 340 340 341 342 344 343 348 346 346 343 347 349 346 351 347 351 349 352 353 357 364 365 368 368 368 367 369 370 371 376 380 375 367 363 366 365 366 365 366 367 368 368 367 366 365 364 362 361 360 359 355 353 352 351 350 346 345
370 371 370 369 369 368 367 367 368 365 365 366 365 361 360 364 364 363 360 359 358 354 351 355 355 359 358 351 353 345 343 345 345 338 350 349 348 345 347 348 347 349 353 348 347 345 351 355 362 363 365 367 367 367 368 370 370 368 368 375 365 368 367 364 365 366 366 367 368 368 368 366 365 364 362 362 360 358 355 353 352 351 349 346 345
367 370 371 371 369 368 368 367 366 367 367 365 365 361 359 362 364 363 361 361 360 354 354 352 356 357 353 352 353 353 350 347 342 344 341 345 348 346 344 347 347 347 346 348 347 349 349 356 346 351 362 367 366 361 369 367 368 372 371 373 366 367 368 364 363 364 366 366 368 368 368 367 366 365 363 361 360 357 354 353 351 351 349 345 345
366 368 370 369 368 369 369 368 366 368 363 363 362 360 361 365 365 366 366 364 361 356 354 353 353 351 355 354 352 353 354 351 350 346 344 342 342 346 348 347 348 344 346 347 347 348 348 353 352 352 353 362 363 363 356 359 366 364 368 366 369 369 367 365 364 365 366 367 368 369 368 368 367 366 365 363 360 357 355 353 351 351 349 345 345
366 367 367 368 366 369 369 367 367 366 364 364 361 361 362 364 365 366 365 363 362 360 359 356 356 354 356 357 355 352 349 350 351 351 345 343 340 343 345 347 347 347 348 347 349 347 349 345 352 352 357 357 360 360 353 362 365 368 370 364 368 370 370 366 364 365 367 368 368 368 368 367 367 367 366 362 359 358 356 354 352 351 348 344 344
368 367 369 367 369 370 368 368 367 364 363 366 362 362 364 366 365 364 366 362 363 362 360 359 356 358 357 357 356 353 353 351 348 347 347 348 340 342 343 343 345 344 349 346 348 348 348 351 351 350 351 358 357 357 367 365 368 358 365 363 367 367 367 366 364 365 365 365 367 367 367 367 367 366 367 364 359 357 356 354 351 350 347 344 343
364 366 366 367 369 370 368 367 369 368 364 364 364 360 361 362 363 365 365 364 361 365 361 360 359 359 357 357 354 351 351 349 350 350 347 346 345 342 344 345 344 343 349 350 351 351 352 354 351 349 351 354 364 365 367 366 368 365 364 364 363 366 366 366 364 363 363 361 364 366 366 367 367 367 366 365 361 358 357 355 352 350 347 343 342
366 366 364 363 369 370 371 370 368 368 365 367 367 364 363 363 363 365 366 366 366 365 363 359 358 359 355 356 353 353 355 353 351 353 351 350 348 344 345 347 347 347 346 355 353 354 352 353 354 355 357 360 365 364 359 364 376 361 365 362 361 364 366 364 364 362 360 359 359 360 363 364 365 366 366 365 363 359 356 356 353 350 346 342 341
363 363 363 365 368 370 371 370 370 369 371 370 370 367 370 366 367 364 366 365 365 366 361 360 359 358 357 358 355 355 355 354 354 353 352 352 350 346 347 347 343 345 351 348 349 352 354 353 357 357 358 356 360 364 355 354 366 364 365 364 359 365 362 362 363 360 358 357 357 357 358 360 362 361 360 360 360 359 357 356 353 349 346 342 341
362 363 363 364 364 366 371 372 375 375 372 374 371 373 371 369 368 367 365 369 366 364 364 362 361 360 360 358 358 357 356 357 357 354 352 351 350 349 350 350 345 343 346 353 354 344 354 357 357 363 360 360 361 364 364 360 362 364 365 369 367 358 361 361 361 360 359 357 357 357 358 360 361 363 363 361 361 361 359 357 355 350 347 342 339
362 366 366 367 367 368 369 370 373 374 374 369 368 370 372 370 368 368 369 366 365 364 363 359 357 360 359 358 357 357 358 356 357 356 355 353 352 352 351 347 345 342 343 349 349 352 347 353 356 357 362 365 362 362 364 362 361 364 365 371 367 358 359 357 358 358 357 355 355 356 358 359 359 359 360 361 361 362 361 359 356 351 347 342 339
366 367 366 367 367 366 369 368 372 371 371 370 370 368 371 367 368 369 368 365 364 365 364 361 359 361 359 361 359 356 361 359 359 358 358 359 356 357 355 352 347 341 344 345 348 348 351 349 354 360 359 362 361 359 362 361 360 364 367 366 366 366 355 355 356 356 354 352 353 356 355 355 357 358 359 360 360 361 362 362 358 352 347 343 339
363 364 366 366 368 368 367 366 371 371 373 372 369 369 368 367 365 369 366 365 367 367 364 362 362 359 359 361 359 361 362 365 361 360 363 362 357 358 356 353 355 347 345 345 350 346 350 349 346 357 363 363 365 361 362 363 363 359 359 363 362 362 355 352 353 353 353 352 351 351 352 353 356 358 358 358 359 360 361 361 360 354 349 344 340
361 360 364 366 367 366 368 368 369 371 370 370 370 370 370 367 367 366 366 369 368 369 368 365 364 364 361 361 361 361 365 362 361 361 365 365 359 359 358 360 360 354 351 346 348 348 346 349 350 350 359 363 360 359 359 359 363 360 360 362 360 356 354 351 353 353 353 350 349 348 349 351 353 352 352 352 352 353 356 358 359 356 350 346 342
364 365 365 364 366 367 369 368 368 369 370 369 370 371 371 369 368 364 367 369 367 366 369 366 363 363 362 360 363 360 364 364 364 361 366 367 364 362 361 363 362 361 357 353 347 350 350 347 353 354 353 360 357 357 357 359 360 358 361 365 364 360 356 368 358 354 351 349 347 346 347 347 346 345 346 349 350 351 353 354 356 356 353 348 344
362 363 363 362 363 363 364 363 364 366 368 367 367 370 371 369 367 363 365 369 365 367 365 366 361 364 365 362 363 362 364 366 365 364 364 368 368 364 365 365 363 363 361 357 353 350 355 352 356 355 357 357 359 359 359 357 360 361 362 361 364 360 362 356 354 351 352 348 346 345 344 343 341 342 345 347 348 350 352 353 354 355 354 350 345
362 362 362 363 364 363 363 365 363 367 369 368 368 370 370 370 369 366 368 367 366 366 367 366 365 366 367 364 364 364 367 365 366 365 363 362 365 363 365 364 362 364 362 360 353 353 358 360 356 357 356 358 355 360 358 355 356 358 358 361 362 356 355 354 352 350 347 347 345 343 343 342 340 340 343 346 348 349 351 352 352 353 352 350 346
360 361 363 362 363 364 363 364 365 366 368 369 366 367 369 368 369 364 363 365 367 365 366 367 367 364 366 365 363 364 368 367 364 363 361 358 358 357 359 360 360 361 364 360 357 354 350 353 356 360 357 358 353 360 358 357 357 362 357 359 356 354 354 355 353 348 342 349 345 344 343 341 340 339 342 344 346 347 347 347 347 346 348 349 344
360 361 361 361 363 367 365 366 367 368 368 368 367 367 368 367 367 365 362 366 366 365 364 366 364 366 364 364 364 364 362 362 364 362 361 362 362 362 361 362 363 362 363 364 361 356 355 355 359 357 357 358 357 357 359 358 362 359 360 356 353 350 352 351 350 347 344 346 346 345 342 341 341 340 340 340 344 344 343 342 341 340 343 342 337
353 362 363 364 366 368 367 367 368 368 367 367 367 368 367 367 367 367 367 367 366 366 365 364 363 363 362 363 362 363 365 363 362 362 359 361 362 364 362 363 364 360 361 362 362 360 358 355 359 357 358 357 357 360 358 358 355 357 358 359 357 353 354 352 350 347 345 346 346 342 342 342 341 340 340 340 340 338 338 337 336 336 335 336 335
350 358 364 365 366 368 364 365 366 367 367 367 367 365 366 367 367 366 367 367 367 367 367 366 364 364 363 362 361 363 364 361 362 360 361 363 363 361 360 361 361 361 361 361 361 361 358 356 356 360 361 359 358 359 359 355 354 355 358 358 356 354 357 355 350 347 344 341 343 342 341 343 344 342 341 341 339 338 337 336 335 333 333 332 329
352 353 359 362 362 365 366 366 366 367 367 368 368 368 365 364 365 365 366 367 365 366 366 365 365 365 364 364 365 362 360 359 359 361 362 359 359 358 360 361 359 359 360 360 360 360 359 357 357 354 358 353 355 359 360 360 354 352 355 357 357 356 358 355 354 352 350 350 353 354 346 345 341 336 341 343 341 338 337 336 336 333 330 327 324
351 351 353 357 360 361 362 362 362 365 366 365 367 368 367 366 365 365 363 365 365 364 365 362 361 363 363 362 363 361 360 361 359 360 361 361 359 359 360 361 361 360 358 358 357 357 357 355 353 353 351 353 355 351 356 360 364 361 355 352 353 357 358 359 360 361 360 358 356 349 350 349 347 350 345 340 339 338 336 335 334 332 329 326 322
353 353 352 354 356 358 358 358 360 364 366 366 368 368 367 365 364 364 363 362 362 362 362 363 361 360 360 360 358 360 362 363 362 363 363 361 362 362 362 362 362 361 359 357 357 356 355 353 350 349 351 353 354 356 355 356 353 354 353 351 350 354 358 363 362 358 361 364 360 355 350 349 349 347 338 338 339 338 336 336 338 338 333 328 325
356 355 354 353 355 357 357 358 358 361 360 361 362 364 364 363 364 362 362 362 361 360 360 360 361 362 360 359 358 357 361 360 364 367 367 366 360 359 361 363 363 360 360 359 357 356 356 353 352 354 351 350 352 351 346 347 347 347 352 355 355 357 356 356 359 362 362 358 358 356 359 361 358 358 359 360 362 361 357 343 351 343 334 328 326
360 360 359 358 357 356 357 359 358 357 357 358 364 360 362 363 365 362 361 364 363 362 361 361 359 359 359 359 357 357 362 363 366 368 365 361 361 362 363 364 362 362 360 359 357 355 354 353 351 349 346 345 344 348 346 348 349 351 349 353 351 353 357 357 360 362 363 361 359 362 364 364 360 360 361 360 359 370 360 365 362 352 341 329 330
362 364 362 360 357 357 356 356 356 353 354 356 345 346 346 350 359 360 360 363 366 365 363 363 362 360 360 360 361 360 368 369 368 364 363 363 363 361 359 361 363 364 361 357 355 356 353 350 350 349 346 347 349 351 349 345 345 347 348 353 352 353 354 353 351 359 366 365 364 362 363 367 367 361 362 361 360 360 357 360 343 343 338 334 332
361 362 363 363 364 362 359 358 357 355 356 334 333 334 340 341 350 360 358 358 360 362 363 362 362 361 360 359 359 357 359 361 364 367 370 367 361 362 361 360 361 360 359 362 361 359 358 353 351 350 348 348 348 351 346 345 348 351 356 357 357 356 355 353 353 352 361 365 361 361 360 366 364 360 361 360 359 359 356 351 342 340 336 334 333
358 360 363 363 363 363 363 363 361 360 360 333 331 333 333 335 337 352 357 358 356 358 360 362 363 363 364 362 360 358 356 365 362 363 368 368 369 361 359 359 360 356 345 344 348 361 363 361 358 354 354 353 353 354 355 358 365 360 361 355 356 355 356 354 353 353 359 367 362 359 355 361 364 358 355 357 359 361 359 345 340 340 336 334 332
357 359 362 362 363 364 363 363 364 362 357 335 330 330 331 331 333 340 361 362 360 358 359 361 360 363 365 365 363 362 365 367 369 367 369 368 368 369 371 371 371 369 358 345 342 343 352 358 360 358 362 365 361 364 367 369 365 361 358 356 360 357 357 357 361 361 364 363 361 359 357 359 360 356 356 360 359 362 363 352 335 338 338 335 332
356 358 360 360 361 361 360 360 360 356 345 328 327 328 328 329 331 340 361 365 365 362 363 364 366 363 364 364 365 363 366 369 370 365 364 364 366 364 365 364 364 364 367 364 365 363 361 357 360 361 363 364 366 366 367 368 365 365 362 363 364 363 362 364 363 364 363 366 362 358 352 357 361 356 355 359 358 362 363 348 339 339 337 334 332
357 357 357 357 357 357 358 358 357 348 341 322 325 325 324 325 332 356 365 366 364 364 367 367 367 369 367 366 367 366 366 368 345 343 350 360 360 361 361 363 364 361 359 362 350 354 362 360 361 360 360 360 345 359 359 356 358 360 359 358 359 360 358 354 352 354 352 357 359 355 351 355 361 354 356 359 360 360 363 365 343 339 338 335 333
354 353 354 353 355 354 355 356 356 350 343 325 318 319 320 322 340 363 365 364 365 365 365 366 366 366 367 365 366 365 364 355 333 325 331 347 360 361 362 361 360 360 360 360 348 339 338 336 334 334 333 332 332 330 329 330 345 350 353 351 351 353 351 349 351 351 351 355 357 358 354 352 358 358 355 358 361 361 362 363 367 337 334 336 332
351 350 351 350 350 351 350 351 352 344 336 323 314 315 316 318 338 361 363 361 362 362 363 363 365 365 363 359 359 362 359 350 324 323 325 346 359 360 358 358 356 355 358 358 359 357 338 332 331 330 330 331 331 330 330 329 330 339 353 350 353 353 350 350 348 351 354 357 357 359 357 354 357 360 356 359 361 360 358 362 363 359 333 330 328
347 350 352 349 348 349 349 346 344 341 337 329 314 313 313 314 336 359 360 359 358 359 359 360 361 361 358 358 352 349 347 334 319 320 321 338 354 357 357 356 354 355 357 358 358 357 359 359 361 366 365 351 358 361 361 343 338 346 353 354 355 353 351 351 352 353 351 353 359 367 359 358 358 358 358 353 351 356 362 362 364 367 368 369 372
Wind_Speed
8 8 7 7 6 5 5 5 5 4 4 4 4 4 4 3 3 3 3 2 2 4 3 5 5 4 4 5 4 4 3 3 3 2 3 2 2 7 8 7 5 6 5 6 6 6 6 7 7 7 7 7 7 7 7 7 8 8 9 9 10 9 9 10 10 9 10 10 10 10 11 11 11 11 12 12 13 13 14 14 14 15 15 15 15
7 7 7 6 6 6 5 5 5 3 4 5 4 3 3 3 3 3 3 3 3 2 1 3 5 5 3 4 2 5 4 4 3 3 3 3 3 6 10 7 7 7 7 7 8 8 8 8 8 8 9 9 9 9 10 10 10 10 11 11 11 11 11 11 10 10 11 11 11 11 11 12 12 12 13 13 14 14 15 15 15 15 15 16 16
6 6 5 5 5 4 5 4 4 5 3 4 4 4 4 4 4 3 3 2 2 2 1 4 3 4 3 4 4 4 4 2 3 3 5 3 3 2 7 10 9 9 9 9 9 9 9 9 9 9 10 10 10 10 10 11 11 11 11 12 11 12 12 11 12 12 12 12 11 11 11 12 13 13 13 13 14 15 16 16 17 17 16 17 18
5 5 5 4 4 4 4 4 5 4 4 4 4 3 3 3 3 3 2 2 1 2 0 3 3 4 4 4 3 3 3 2 2 5 4 4 2 3 2 6 11 10 11 11 10 10 10 11 10 10 10 11 11 12 12 12 12 12 12 12 12 12 12 12 12 12 12 11 11 12 12 13 13 14 14 14 15 16 17 17 17 18 18 18 19
4 5 4 4 4 4 4 4 4 4 4 4 3 2 2 1 2 1 2 1 2 2 2 4 5 3 3 5 4 3 3 3 2 3 4 4 4 2 2 2 4 13 12 11 12 12 12 11 11 11 11 11 12 12 13 13 13 13 13 13 13 13 13 13 13 13 12 12 12 12 12 13 14 14 14 13 13 14 14 14 15 16 15 16 18
4 3 3 5 4 4 4 5 4 3 3 2 2 3 3 3 3 2 1 1 2 2 3 3 4 2 4 3 3 3 1 2 2 4 1 2 4 2 2 3 1 2 5 13 11 12 13 12 11 11 11 11 11 12 12 13 13 13 13 13 13 13 13 13 13 12 12 12 12 12 12 13 13 12 12 12 12 12 13 13 13 15 15 15 16
3 3 3 3 5 5 4 4 3 2 3 3 2 2 3 3 3 3 3 2 3 3 4 4 4 4 3 3 2 2 1 3 2 2 3 3 0 2 1 1 1 1 1 2 12 12 11 11 11 10 11 11 11 11 11 11 11 11 11 12 11 11 11 10 10 10 10 10 10 11 11 11 10 10 10 10 10 10 11 11 12 12 13 14 14
4 2 3 3 4 5 5 4 2 2 3 2 1 2 2 3 4 3 3 2 2 4 3 3 3 4 3 2 3 1 2 2 2 0 4 1 2 1 1 1 0 1 2 1 2 7 12 10 9 10 10 10 10 9 9 9 9 9 9 9 9 9 9 9 8 8 8 8 8 8 8 8 8 8 8 8 9 10 11 11 10 11 11 12 12
4 3 3 3 4 5 5 4 3 3 1 1 2 2 2 4 2 3 3 2 3 4 3 2 3 2 3 3 3 1 2 1 1 2 3 1 2 3 2 3 2 2 3 2 2 2 10 9 9 9 9 9 8 8 7 7 7 7 7 7 7 7 7 7 7 6 6 7 7 7 7 7 6 7 8 9 9 10 10 11 12 12 12 12 12
4 3 2 3 3 3 5 4 3 2 1 2 2 2 2 2 2 3 3 3 3 4 4 2 2 2 1 4 2 1 2 1 2 0 2 2 2 2 1 2 1 2 3 3 3 2 2 9 10 9 9 7 6 5 5 6 6 6 6 6 6 6 6 6 6 5 6 5 6 6 6 6 6 6 7 8 8 9 10 11 12 12 11 11 12
4 3 2 2 3 4 4 3 3 2 1 2 3 3 3 3 3 3 2 3 3 3 4 2 1 2 3 3 3 2 0 2 1 1 1 2 4 1 3 2 1 3 3 2 3 4 2 3 1 1 6 8 4 4 3 4 5 5 5 6 6 6 6 6 6 7 5 5 5 5 5 6 6 6 6 7 8 8 9 10 11 11 11 11 12
4 3 2 2 2 3 3 3 2 2 2 2 2 2 2 2 3 4 3 1 2 2 3 2 2 3 2 2 3 3 2 1 2 2 1 2 2 2 1 3 2 1 2 3 2 3 3 2 0 2 3 8 5 4 4 2 3 4 5 5 6 5 5 6 6 6 5 5 4 5 5 5 6 6 6 6 7 8 9 10 11 11 11 11 12
4 3 3 2 2 2 3 2 2 2 2 2 2 3 2 2 1 2 2 2 3 3 3 2 1 4 2 3 4 3 5 2 0 2 2 1 3 1 1 1 2 3 2 3 2 3 3 2 2 2 3 2 6 8 6 3 2 2 3 4 5 5 5 6 6 6 5 4 4 4 4 4 5 5 5 6 7 8 9 10 10 10 11 11 11
4 3 2 2 2 2 2 2 1 2 1 1 1 1 0 1 2 0 1 3 3 5 5 4 2 3 3 4 5 4 2 1 2 4 2 3 5 5 3 3 2 3 3 3 3 2 3 4 3 4 2 2 3 3 2 6 6 3 2 3 4 4 5 5 6 6 5 4 5 4 4 4 4 4 5 5 6 8 9 9 10 10 11 11 12
4 3 3 2 2 2 2 3 1 1 2 2 2 1 0 1 1 2 2 3 3 4 4 7 3 4 2 2 3 6 3 3 3 4 4 4 4 5 4 6 5 6 3 3 4 5 4 5 4 3 3 2 3 2 2 4 4 1 1 0 1 3 4 4 5 5 6 5 4 4 4 4 5 4 5 5 6 8 8 9 9 10 10 11 11
4 3 3 3 2 2 2 2 2 1 1 1 1 1 1 0 1 2 3 2 3 5 4 5 6 3 2 2 2 1 5 3 3 3 5 5 5 7 3 7 3 4 1 3 7 3 5 5 5 4 3 3 2 1 3 3 5 6 5 4 3 2 2 3 3 4 4 5 4 4 5 5 5 6 6 6 7 7 8 8 9 10 11 11 11
4 3 2 3 2 2 2 2 2 2 2 3 1 1 1 1 1 0 3 4 3 3 4 4 6 5 4 1 4 2 4 3 4 3 3 4 6 7 2 4 9 3 3 3 3 1 3 5 4 4 3 3 2 1 3 3 2 2 4 6 3 3 3 3 3 4 4 4 4 4 4 5 5 7 7 7 7 7 8 9 8 9 10 10 10
3 2 2 2 3 2 2 2 3 2 1 1 1 1 2 1 2 2 2 3 3 3 3 4 4 3 3 4 4 4 2 3 2 4 3 5 5 6 4 3 6 4 3 7 3 7 5 2 3 5 3 3 3 3 2 3 2 1 3 3 0 3 4 4 4 4 4 4 4 4 4 5 5 7 8 8 8 7 8 8 8 8 9 9 9
4 3 2 1 1 2 2 2 1 2 2 2 2 3 3 2 1 1 2 3 2 2 2 4 3 2 3 3 3 3 3 3 3 2 3 2 4 4 5 2 4 4 3 1 6 6 4 2 8 5 3 3 4 6 3 3 2 2 3 2 3 4 4 4 5 6 5 5 5 5 5 6 6 6 8 8 8 7 7 8 7 8 8 9 8
2 3 2 2 1 2 1 1 1 1 0 1 1 1 2 2 1 2 1 1 2 2 4 4 1 2 4 4 2 2 2 3 5 3 2 2 3 2 4 4 5 7 7 4 3 7 5 5 2 3 7 6 7 4 8 8 6 6 2 8 3 4 5 5 5 6 6 6 6 6 6 6 6 7 7 8 8 7 7 7 6 7 7 8 7
2 2 3 2 2 1 1 1 1 1 2 2 2 2 1 2 1 1 1 0 1 2 2 2 4 3 2 3 4 3 1 2 2 2 3 3 2 2 1 4 5 2 3 7 4 7 6 3 5 3 4 4 4 4 4 5 6 5 6 5 4 4 5 6 6 7 7 7 7 7 7 6 6 7 8 8 8 7 7 7 6 5 7 7 6
4 3 3 3 2 2 2 1 2 1 2 1 1 1 1 2 1 0 1 1 1 1 1 1 2 4 2 1 2 2 2 0 0 1 2 2 3 3 1 1 4 4 5 5 8 5 4 9 5 8 7 2 3 5 4 6 5 6 7 10 6 6 6 6 6 7 8 8 8 8 8 7 7 7 8 8 8 7 7 6 5 4 5 6 6
3 4 4 4 3 2 3 2 2 1 2 2 2 2 3 3 2 2 1 1 1 2 2 2 1 2 3 1 3 0 1 1 1 2 2 2 4 5 3 5 6 1 1 3 4 3 3 3 0 9 2 5 5 6 4 6 3 8 9 6 4 5 6 6 7 7 8 8 9 9 8 8 8 8 8 8 8 8 7 6 5 3 3 5 5
2 2 3 3 3 2 1 1 1 2 2 3 1 1 1 1 1 1 1 1 1 2 3 3 4 1 5 0 1 1 2 3 1 2 1 2 3 3 3 2 3 6 5 4 4 1 2 3 4 3 2 1 3 2 7 7 7 9 9 4 2 3 5 6 6 7 7 8 9 8 8 8 8 8 8 9 8 8 7 7 5 3 1 3 4
2 3 4 3 3 2 2 1 1 2 1 1 0 1 1 2 1 2 1 1 1 2 2 2 2 4 4 2 3 2 1 1 1 3 3 1 2 3 5 6 6 4 4 5 2 6 3 4 2 3 4 5 4 3 6 8 5 9 8 3 5 2 2 4 6 6 7 7 8 8 7 7 8 8 8 8 9 8 8 7 6 4 2 0 3
3 2 2 3 3 3 3 2 1 1 1 1 1 1 1 2 1 2 2 1 1 2 2 2 2 3 3 4 4 1 2 2 0 3 2 2 2 3 3 4 5 5 6 3 2 4 2 1 2 3 3 3 5 5 5 7 5 8 8 9 7 4 1 4 5 6 7 7 8 8 8 7 7 8 8 8 8 9 8 8 7 5 3 1 1
3 3 2 2 3 2 3 2 2 2 2 2 2 2 1 2 2 2 3 1 1 2 2 2 2 1 3 3 3 5 2 2 4 2 2 3 3 3 4 4 3 3 4 3 3 3 3 3 1 4 3 3 5 5 5 7 5 8 11 6 5 8 0 2 6 6 7 8 8 8 8 8 7 6 7 8 9 9 9 8 8 7 5 3 2
3 3 4 4 4 4 4 4 3 3 3 2 2 2 2 2 2 2 3 2 2 2 3 2 3 2 3 2 3 4 3 4 5 3 3 4 3 3 3 3 4 4 4 5 4 3 1 4 1 2 3 5 4 5 3 8 5 9 8 6 6 0 5 7 7 7 7 8 7 8 8 8 7 6 6 7 8 9 10 9 9 9 7 6 4
3 4 5 4 4 4 3 3 4 3 3 3 3 2 2 3 3 2 3 2 1 2 3 2 3 3 2 2 3 3 3 3 4 4 2 3 4 4 3 3 3 4 4 5 3 5 4 5 6 3 4 4 4 5 5 5 5 7 7 6 6 6 8 8 8 6 7 7 7 7 8 8 8 7 6 5 6 8 9 9 9 9 9 8 6
4 2 2 4 4 4 4 3 3 3 2 3 3 3 3 3 2 3 3 2 2 2 3 3 3 3 3 3 2 3 3 4 4 3 1 2 4 4 4 3 2 3 4 5 5 6 6 7 6 4 3 3 5 5 5 7 9 7 6 6 6 7 9 10 8 7 6 6 6 7 7 8 8 8 7 6 5 6 8 9 9 9 10 10 8
4 3 3 3 4 5 4 5 5 5 4 4 4 4 4 4 3 4 3 3 3 3 3 3 4 2 2 3 3 4 3 4 5 5 2 3 3 4 4 3 3 4 5 5 6 3 4 5 5 6 6 4 6 6 6 6 4 5 6 6 6 8 13 10 10 7 4 5 6 7 8 8 8 8 8 7 5 5 7 8 8 9 10 10 9
5 5 5 5 4 5 6 6 5 5 5 4 5 5 4 3 3 4 2 3 3 3 4 3 3 1 2 3 3 4 3 4 4 4 4 3 4 5 4 4 4 4 3 4 5 6 6 7 7 6 6 6 5 5 6 6 2 8 7 5 6 9 8 5 11 9 5 4 5 8 8 8 9 8 8 8 6 5 6 7 8 9 10 10 10
4 5 5 5 5 5 5 4 4 4 3 3 3 3 4 4 4 4 3 3 3 4 3 3 4 3 3 3 4 4 4 4 4 4 5 4 4 4 3 3 4 3 3 4 6 6 5 6 6 6 7 6 5 4 6 6 6 6 8 6 7 7 7 6 7 10 7 2 5 7 7 8 8 8 8 8 7 5 4 5 7 8 9 9 10
5 5 6 6 6 5 5 5 4 4 4 4 5 4 4 4 4 5 5 5 4 4 3 4 3 3 3 4 4 4 4 4 4 5 5 5 5 5 4 4 4 4 2 4 5 6 7 6 6 6 6 5 6 4 6 7 7 7 8 8 7 8 6 7 8 3 9 3 3 6 7 7 8 8 8 8 7 5 3 5 6 7 8 9 10
6 6 6 6 5 5 5 4 4 5 4 5 5 4 4 4 4 5 3 4 4 5 4 4 4 4 4 4 4 4 4 3 3 5 5 4 4 5 5 5 5 5 5 4 4 6 7 7 7 7 6 6 6 6 6 6 6 6 7 8 8 7 7 8 8 8 9 2 2 7 8 8 8 8 8 8 9 7 3 5 6 7 8 9 10
7 7 6 5 6 5 5 5 5 6 5 5 5 5 5 5 5 5 5 5 5 5 4 4 4 4 4 4 4 4 3 4 4 5 4 4 4 4 5 4 4 5 4 4 4 5 6 8 7 7 7 7 6 6 6 6 7 7 6 7 8 8 9 9 9 10 1 4 8 10 10 9 9 8 9 9 10 9 5 4 6 7 8 8 9
8 7 7 6 6 6 6 6 6 6 6 6 5 6 5 5 5 5 5 5 5 5 5 5 4 5 5 5 4 4 4 4 5 5 4 3 4 5 5 4 4 4 4 5 5 5 6 7 7 6 7 7 6 6 6 7 7 7 7 7 8 8 8 9 10 9 11 9 12 11 11 11 11 9 10 10 10 10 9 5 6 8 8 9 9
8 8 7 7 7 7 7 6 6 6 6 6 5 6 6 6 6 6 6 6 6 6 6 6 6 6 5 5 5 5 5 5 5 4 4 5 5 6 5 5 5 5 5 6 5 5 6 7 7 8 7 7 7 6 7 6 8 8 8 7 8 7 7 9 9 9 9 9 8 6 7 10 9 12 12 10 11 11 11 8 6 8 9 9 9
8 9 9 8 7 7 7 8 8 7 7 7 6 6 7 7 6 6 6 6 6 6 6 7 6 6 6 6 6 6 6 6 6 5 5 5 5 5 5 5 5 5 6 6 5 6 6 7 7 7 7 7 7 8 7 6 6 7 7 7 8 7 7 8 9 9 9 10 10 10 9 8 10 10 7 9 11 12 11 10 6 9 9 9 10
8 8 9 9 8 8 8 8 8 7 7 7 8 8 7 7 7 7 7 7 7 7 6 6 6 6 6 7 8 6 6 6 6 5 5 5 4 5 4 5 5 6 6 6 6 6 6 7 7 7 7 8 8 8 8 7 7 6 7 7 9 9 9 8 8 10 9 9 9 10 6 7 9 11 14 14 14 13 12 10 11 9 9 9 10
7 8 9 9 8 8 7 7 8 7 8 8 8 8 8 8 8 7 7 8 8 7 7 7 7 6 7 7 7 8 3 2 2 4 6 6 6 6 6 5 6 6 7 6 6 6 6 7 7 7 8 8 8 8 8 7 7 8 7 7 8 9 9 10 9 9 8 9 9 10 11 10 10 10 9 9 5 8 11 13 7 11 8 9 9
7 7 7 7 8 7 7 7 7 8 7 7 5 6 3 4 5 6 6 6 7 7 6 6 7 7 7 7 6 1 2 4 6 6 7 7 6 7 7 6 6 7 7 7 7 7 7 8 8 8 9 9 9 8 9 9 9 8 8 8 9 9 9 10 10 8 8 9 10 10 10 10 10 9 8 8 8 6 7 3 6 5 7 9 9
7 7 7 8 9 8 8 8 9 8 8 4 9 6 2 2 5 7 7 7 7 7 7 7 7 7 7 6 6 6 7 7 9 10 9 8 8 9 10 9 8 7 7 7 7 7 7 8 8 8 9 9 9 9 10 10 10 9 9 8 9 9 9 10 11 9 6 8 9 10 10 10 9 9 8 8 8 7 6 3 7 4 7 9 9
7 7 8 8 8 8 8 8 8 8 3 8 6 5 2 3 6 7 8 8 8 8 7 7 6 6 7 6 7 6 6 3 3 4 8 10 10 10 10 10 10 12 11 9 7 7 8 8 9 9 10 10 10 10 11 11 10 10 10 10 9 10 10 10 10 10 8 9 11 11 11 9 8 9 9 7 7 8 5 3 5 6 6 7 9
7 8 7 7 7 7 8 7 7 6 4 7 7 6 4 4 6 8 8 8 8 8 8 7 7 6 5 5 6 5 4 8 4 6 5 4 9 11 11 11 11 12 12 14 14 11 9 9 10 11 10 10 11 10 10 10 9 10 10 10 10 11 11 11 11 11 11 9 10 11 11 9 9 9 9 8 8 7 5 9 9 7 8 7 8
8 7 8 7 6 6 6 6 5 3 6 7 7 5 4 4 3 6 7 8 8 9 9 8 8 7 5 5 5 5 4 3 3 4 4 5 5 5 7 8 8 11 14 16 16 17 14 10 9 10 10 9 10 10 10 10 10 10 11 12 11 12 11 12 12 12 12 10 10 10 10 9 9 10 9 8 8 6 7 6 12 10 9 7 7
7 7 5 5 5 6 6 5 5 2 6 6 5 5 5 4 2 5 6 6 6 7 7 7 7 7 5 5 5 5 3 2 4 5 3 5 5 6 7 8 8 8 8 9 10 10 9 10 10 11 11 11 11 11 10 9 10 10 10 11 12 12 11 11 11 12 12 10 11 9 10 10 9 10 9 9 9 8 8 4 14 11 10 8 8
5 4 4 4 5 6 6 5 7 7 5 9 6 5 4 5 4 5 5 3 5 5 4 4 3 3 4 3 3 3 3 4 7 8 5 5 6 7 7 8 8 8 9 9 8 6 10 12 11 12 11 12 13 12 11 10 10 11 11 11 11 10 11 11 12 12 12 10 9 9 9 9 8 10 10 10 9 10 8 9 5 12 12 10 9
4 4 4 4 3 4 3 3 2 7 7 9 10 9 8 7 6 4 3 3 3 4 3 2 3 3 2 1 3 3 1 7 7 9 9 8 6 7 7 8 8 8 7 7 4 6 11 11 12 13 14 16 17 16 16 15 10 8 9 10 11 10 11 12 12 12 12 11 10 10 11 11 8 9 11 10 10 10 10 8 5 12 12 11 10
4 5 4 3 3 2 0 2 3 8 7 9 11 11 10 10 8 3 3 4 4 4 4 4 2 2 5 6 1 3 5 5 7 8 9 8 6 8 9 10 10 10 9 7 8 5 8 13 13 14 15 15 15 15 15 15 15 8 7 9 11 10 12 12 13 12 11 11 11 10 8 9 10 9 10 10 10 9 9 7 7 1 11 8 13
3 3 1 3 4 4 6 8 11 9 7 9 11 11 12 12 8 5 4 5 5 5 5 4 5 2 3 7 11 9 7 6 7 6 7 8 6 8 8 10 10 9 8 9 7 8 8 8 9 9 10 11 10 10 10 15 17 12 10 11 11 10 11 12 12 12 12 10 8 5 5 9 10 10 10 10 10 10 8 8 7 7 7 7 5
Wind_Direction
112 109 107 104 105 110 111 99 93 88 97 82 69 63 57 45 46 53 63 78 105 96 120 103 131 108 101 117 114 111 87 83 82 91 71 87 113 137 172 188 223 243 252 269 276 280 279 282 289 288 292 296 298 294 286 283 285 288 293 290 291 294 296 296 300 299 293 295 295 292 292 290 288 288 285 287 287 287 289 291 289 286 285 285 282
98 103 105 108 111 107 103 99 91 82 80 69 56 48 50 50 30 45 61 78 73 85 26 86 83 87 70 94 98 100 123 105 92 83 96 103 97 127 171 190 217 232 244 252 263 271 278 280 277 276 277 281 287 289 291 292 291 293 291 294 294 292 292 294 292 290 287 285 284 282 282 284 283 283 286 286 287 287 286 284 284 284 283 281 278
104 108 113 113 108 103 94 97 91 78 65 75 56 36 27 24 21 6 41 58 63 69 33 100 104 100 101 104 107 109 82 95 143 148 119 94 91 121 154 188 212 225 237 244 252 256 259 266 269 271 272 271 273 274 276 275 277 278 280 280 280 282 285 286 286 285 284 284 282 283 284 284 284 284 284 283 283 283 285 287 289 288 285 285 285
100 106 103 103 100 95 94 83 79 77 59 48 38 35 34 24 28 15 9 39 91 115 143 93 93 105 126 90 93 91 111 117 110 79 79 93 119 116 134 170 197 218 228 239 244 249 254 255 260 263 266 268 269 269 269 270 270 271 272 274 275 278 278 278 278 279 280 281 282 283 282 283 283 286 288 291 292 291 292 291 291 290 291 292 291
99 104 113 101 99 109 102 84 79 74 68 62 57 10 35 72 44 26 27 96 76 129 172 110 82 50 81 99 85 91 98 110 112 146 97 129 126 110 94 103 161 192 215 229 234 242 245 250 254 257 260 262 264 266 267 268 270 271 272 273 276 277 277 277 279 281 284 284 283 284 286 286 294 302 302 296 295 293 290 293 297 299 300 297 293
109 114 133 125 119 105 99 96 91 81 81 46 64 41 41 21 11 68 56 68 89 67 78 82 101 109 79 93 100 64 108 116 87 96 161 91 86 117 143 145 167 159 183 202 221 229 239 244 247 251 256 260 265 266 268 271 275 278 279 281 282 282 287 295 293 288 284 284 286 286 288 299 308 307 308 308 300 299 300 302 304 307 307 304 304
101 118 111 128 134 117 107 96 84 92 88 76 13 49 33 27 11 2 52 73 100 69 53 64 101 99 65 38 45 82 33 91 64 114 120 93 165 98 101 142 98 117 169 169 191 212 222 232 241 247 252 259 264 269 275 280 285 289 293 298 303 304 305 306 305 298 293 290 289 290 300 315 312 320 323 322 319 316 318 319 323 326 328 332 338
116 134 138 138 114 119 103 105 120 91 74 70 326 68 74 34 8 2 52 12 105 103 88 94 70 88 97 165 112 165 142 71 162 168 82 170 85 111 150 109 141 55 10 359 42 162 199 216 230 239 249 254 261 270 282 289 295 301 308 314 314 313 314 314 312 310 308 303 302 305 321 328 338 341 338 334 331 329 330 336 337 334 336 341 339
126 139 146 128 120 124 130 124 115 91 123 134 94 56 354 95 34 354 12 344 42 73 106 125 126 124 152 121 84 55 32 101 38 91 102 147 193 160 153 126 117 183 189 145 151 99 177 202 215 231 242 248 259 271 285 295 303 316 323 325 322 324 329 328 322 317 316 335 338 348 355 352 349 344 339 340 340 341 340 343 345 348 349 349 342
130 131 92 97 97 85 97 116 121 122 118 103 73 55 55 19 64 18 11 9 29 38 45 31 54 131 81 89 93 51 121 166 86 197 140 148 137 102 82 49 119 83 50 42 63 79 97 177 201 217 219 227 238 253 275 297 309 323 332 330 330 334 340 338 332 337 353 358 10 7 2 0 354 352 347 347 348 344 344 346 349 351 353 350 340
131 136 139 131 126 113 118 122 121 126 125 157 98 66 15 22 360 48 359 32 17 28 33 334 78 2 84 82 110 132 42 94 180 109 29 22 56 135 123 118 114 139 116 171 137 113 81 38 112 146 159 186 210 234 267 289 311 323 331 338 341 344 349 357 4 11 4 18 17 13 9 6 1 355 351 352 349 344 346 349 349 351 353 350 341
139 134 127 115 115 127 116 148 112 107 80 54 73 80 29 19 27 348 12 54 66 21 32 337 81 68 64 113 108 110 89 80 147 139 147 171 120 349 37 138 134 87 124 134 70 88 84 83 146 69 56 147 177 197 212 273 310 331 329 346 352 348 4 10 12 14 14 19 16 12 11 4 0 353 350 349 344 340 346 349 349 351 352 349 342
140 149 131 130 137 118 138 131 143 97 88 79 69 48 38 319 97 302 348 33 33 14 51 21 34 114 124 110 115 144 118 141 130 138 166 156 95 189 51 217 142 140 127 75 72 52 106 95 81 68 63 25 164 175 181 185 157 3 337 356 356 357 4 10 11 13 16 17 15 7 3 356 357 349 343 342 337 338 342 345 347 350 350 347 342
140 145 143 150 144 147 147 142 118 109 79 97 96 123 242 348 345 257 86 32 59 19 28 293 128 77 146 129 116 85 83 157 160 104 141 108 146 131 201 258 59 82 82 103 103 161 102 91 47 69 48 64 42 56 140 169 146 79 6 353 342 352 360 6 3 2 7 12 5 1 353 344 343 337 331 329 331 332 335 340 344 349 351 349 347
149 158 154 165 145 144 166 144 152 139 174 179 152 140 1 3 345 17 340 133 76 62 45 352 54 103 98 183 135 144 105 96 70 66 57 92 99 77 303 59 22 43 12 89 84 66 61 65 76 64 74 35 50 71 96 93 80 181 174 190 341 313 341 352 353 354 350 357 355 343 341 329 323 319 316 313 319 327 330 334 339 345 353 353 352
155 167 144 148 156 170 153 137 155 146 177 158 159 121 148 206 5 52 323 352 78 63 36 51 19 347 126 43 114 133 141 89 110 98 89 45 51 58 355 94 31 59 243 59 60 6 70 77 79 94 76 54 44 63 84 51 147 199 182 172 209 262 291 323 330 335 336 338 338 328 327 319 312 306 307 308 307 316 323 330 337 344 353 358 358
152 153 144 143 141 148 143 147 142 163 165 170 196 100 14 96 59 64 22 359 42 73 55 40 57 26 22 243 144 116 35 64 85 18 35 91 84 116 249 42 83 56 64 22 92 37 66 78 98 97 115 115 117 80 56 47 98 36 164 175 179 234 243 258 286 304 307 310 312 306 307 304 300 299 299 303 305 307 316 326 335 341 355 3 4
164 161 129 149 146 146 170 181 158 149 192 23 79 150 181 220 110 334 92 57 1 17 68 80 48 61 95 79 23 23 29 356 315 91 7 341 95 71 28 2 138 142 232 118 7 48 347 76 113 102 78 85 77 66 44 89 40 65 14 70 200 255 249 244 257 279 284 285 286 282 283 287 285 289 292 294 300 304 310 320 331 340 357 9 11
167 169 145 152 154 157 166 210 156 149 162 173 197 235 120 106 13 60 33 44 27 39 346 81 36 2 49 50 50 8 28 11 40 158 123 18 351 130 130 20 25 27 28 39 124 108 7 353 37 360 67 43 48 25 16 28 95 184 222 287 265 279 278 261 259 262 273 278 276 267 270 274 274 273 280 286 291 296 306 313 326 340 358 12 17
162 153 192 182 198 182 185 209 240 61 168 193 238 4 63 78 64 53 49 28 37 20 357 5 85 74 31 345 59 71 18 21 30 8 342 124 165 5 96 83 43 28 341 349 51 101 198 345 137 105 13 13 23 26 30 343 357 355 340 183 231 286 295 290 277 265 268 278 273 268 268 269 272 270 267 275 280 287 297 307 322 339 357 14 23
187 175 186 202 209 206 214 242 229 219 239 199 214 116 134 81 123 155 184 131 12 39 341 0 321 63 49 16 355 337 64 59 66 332 8 337 68 137 72 86 69 101 353 318 14 24 21 140 259 94 141 37 34 339 12 321 338 345 50 85 342 316 304 306 299 283 274 268 273 272 268 270 271 271 270 271 273 276 287 300 313 335 358 18 26
166 192 176 204 210 207 217 223 244 232 268 10 18 124 163 166 195 166 31 4 3 300 307 13 332 336 36 19 2 13 319 81 93 357 54 321 300 319 34 45 155 111 265 60 332 94 17 314 328 65 0 28 339 331 333 353 322 2 357 338 332 317 314 311 303 287 279 277 275 274 275 270 270 272 266 264 266 273 274 286 299 324 354 17 33
176 161 187 191 177 217 238 190 259 164 250 225 217 211 180 181 152 111 212 314 313 337 289 255 263 297 279 126 291 226 72 334 17 12 329 311 346 327 351 16 344 61 121 107 254 18 311 252 223 62 308 357 321 333 355 293 21 31 331 291 296 307 320 318 303 295 291 286 285 285 278 277 273 268 266 265 264 266 268 267 277 301 344 15 41
195 163 180 184 157 207 243 248 229 241 210 229 231 257 275 161 141 175 178 224 296 293 318 329 303 209 278 215 245 271 129 277 2 164 145 7 321 321 309 334 344 318 35 348 355 308 287 3 2 102 198 231 74 295 315 315 92 39 339 9 259 319 326 317 315 313 302 297 293 290 285 279 277 271 267 268 265 263 266 261 266 269 322 22 45
183 190 160 183 162 199 222 237 210 228 306 341 268 269 323 295 65 244 164 243 248 293 281 296 308 321 314 329 294 319 49 276 298 329 70 247 276 281 337 1 313 300 51 312 351 296 111 308 36 2 50 341 345 19 338 327 29 29 333 355 167 55 340 326 319 311 307 300 298 296 288 273 266 260 258 254 255 255 256 259 252 253 227 55 43
163 164 204 163 191 167 186 219 217 220 213 212 252 284 302 297 273 282 248 124 289 250 262 262 250 241 267 305 301 324 312 336 321 250 260 251 287 336 9 338 322 346 303 321 350 294 333 25 327 85 16 358 335 350 340 321 356 20 332 304 142 125 60 328 314 316 314 314 309 304 296 284 282 276 270 260 258 256 248 241 240 240 225 188 92
174 170 180 181 184 191 191 223 186 207 215 222 217 217 236 252 282 286 306 234 240 289 276 273 281 324 275 275 303 284 354 286 279 316 315 323 343 348 358 322 335 326 311 296 296 269 309 305 252 29 23 348 352 330 346 325 39 10 315 297 1 140 174 354 322 316 318 318 315 311 308 299 293 280 269 268 262 262 259 243 230 220 207 193 182
189 180 192 204 201 198 195 197 194 195 203 217 240 231 200 250 275 274 266 239 234 232 255 255 250 246 281 296 287 297 304 315 329 315 337 345 346 331 315 332 334 324 344 299 312 320 339 315 38 131 14 351 351 306 300 293 15 345 286 330 338 114 94 354 325 308 313 318 317 318 317 313 302 292 277 262 266 264 263 256 229 217 207 190 186
203 193 198 197 204 209 210 190 169 201 199 206 225 221 226 239 233 239 268 279 273 270 281 276 278 279 263 262 280 287 289 306 293 296 26 327 313 318 310 323 358 314 310 305 328 316 332 340 315 82 31 350 312 314 305 321 38 348 339 331 336 333 14 324 306 293 302 314 318 319 318 314 312 299 303 286 274 264 262 256 243 210 204 198 195
217 216 178 187 193 208 203 199 198 195 206 202 195 209 219 244 231 246 258 288 281 278 275 285 283 266 278 281 287 284 295 277 265 296 325 297 298 305 319 342 314 298 309 308 331 318 328 329 316 0 29 338 314 327 341 329 101 331 338 335 333 356 323 297 276 270 286 307 320 321 319 318 316 314 311 301 274 262 257 256 249 219 206 200 196
195 215 229 204 195 193 208 203 191 202 194 202 193 202 215 236 237 241 200 217 250 260 259 246 255 272 291 283 280 272 285 295 314 292 344 309 296 299 304 309 296 302 305 311 302 347 318 292 311 341 326 358 339 333 335 325 88 1 332 330 332 330 294 268 233 221 259 299 320 324 322 320 318 313 312 306 287 255 246 247 244 234 215 202 200
203 199 221 217 205 209 198 208 198 196 195 198 202 190 214 237 249 258 144 193 237 248 265 272 275 293 272 273 275 281 288 290 294 303 278 265 295 302 308 309 293 284 296 298 298 302 309 311 328 307 319 345 322 336 335 313 105 178 334 309 324 274 276 331 179 195 192 288 326 326 322 319 313 309 309 305 297 269 249 247 241 234 224 209 199
221 212 209 216 213 218 233 223 214 184 198 206 211 212 217 222 239 253 269 243 244 245 232 254 272 259 263 275 281 285 286 285 286 289 300 286 265 258 262 271 286 293 299 309 302 305 299 311 302 317 329 325 328 345 323 325 327 346 315 337 314 319 315 318 320 171 187 165 341 329 318 310 306 303 300 298 295 286 260 253 246 237 231 216 200
218 220 210 213 208 215 222 214 228 214 195 204 222 210 223 222 239 225 209 214 232 251 266 252 245 265 251 258 269 269 250 259 276 279 278 288 292 300 314 313 317 314 334 307 313 309 311 311 321 318 304 339 315 339 330 318 334 320 327 323 319 317 321 317 316 306 166 120 336 316 298 290 293 291 289 290 288 288 260 248 241 238 237 224 207
204 219 203 214 206 207 229 219 209 224 217 219 216 220 221 228 241 264 258 211 222 239 233 233 242 241 246 251 255 253 251 254 263 265 271 285 299 307 301 300 304 302 307 311 306 306 312 309 311 306 323 331 318 322 313 319 314 315 318 321 323 322 321 317 312 314 144 231 222 264 266 271 274 277 281 285 291 295 266 239 234 236 233 226 215
221 200 212 211 197 203 218 215 209 224 214 226 227 214 215 227 239 235 245 252 251 243 244 254 248 238 249 254 261 268 283 278 268 279 279 273 278 277 285 289 287 296 300 292 287 298 304 304 305 311 317 316 308 309 311 312 312 324 314 317 310 315 318 314 311 311 11 213 224 234 250 258 255 258 263 278 289 293 284 226 227 226 224 224 219
232 208 194 207 203 203 219 215 214 213 216 222 231 238 231 222 224 233 232 233 234 241 250 251 259 265 265 265 261 255 254 261 263 259 267 283 287 293 286 291 291 294 303 302 296 291 297 297 303 301 302 292 297 302 312 310 314 311 316 309 314 313 316 313 310 317 308 249 222 232 242 238 237 234 247 268 279 281 283 246 219 216 217 218 217
232 227 208 208 206 205 219 226 222 216 217 222 227 243 242 229 221 229 227 227 227 232 237 234 232 235 242 244 254 257 257 262 276 290 297 291 281 273 294 307 304 304 295 285 284 288 287 290 292 296 290 301 303 303 302 299 305 315 312 312 308 313 311 311 316 315 318 325 333 308 242 228 214 223 243 252 260 271 273 270 216 211 213 213 214
227 226 219 215 216 218 214 223 227 222 221 224 224 226 240 247 245 242 245 236 234 232 229 232 234 229 231 234 237 243 250 258 269 274 275 278 285 296 284 284 287 292 290 291 293 286 284 284 288 285 290 293 301 299 302 302 286 284 298 302 302 307 308 311 309 313 317 322 315 275 269 295 298 285 278 242 245 256 267 267 233 209 209 209 209
229 229 230 219 215 220 222 222 223 223 219 223 217 222 230 238 238 234 234 242 241 236 237 236 242 241 234 235 240 236 235 236 244 258 259 267 281 282 287 293 297 289 289 292 293 292 289 290 288 298 301 296 289 293 297 290 296 297 301 309 306 310 309 306 306 312 316 311 307 323 311 258 261 241 235 242 241 245 247 246 240 209 199 202 203
235 231 226 232 226 224 223 220 221 222 223 218 219 213 216 224 242 245 242 241 241 241 246 247 237 238 242 247 243 243 241 24 322 288 301 319 300 286 285 282 279 287 287 287 287 286 285 284 289 289 284 289 293 290 299 308 306 307 304 298 301 299 306 308 307 307 310 312 312 321 321 321 312 313 319 318 306 217 225 218 231 164 174 192 201
235 242 247 238 234 220 220 215 216 224 226 232 186 74 352 282 247 254 254 250 253 256 252 249 248 243 243 250 253 94 84 226 231 234 242 249 242 274 294 298 297 291 290 287 284 283 288 292 290 292 294 294 298 306 309 304 300 295 301 312 306 307 304 301 299 303 315 312 320 314 309 313 314 311 307 305 313 297 324 213 31 34 165 189 198
235 228 232 233 234 230 223 219 216 222 230 45 53 102 132 272 271 249 251 255 249 251 249 244 255 261 259 253 259 220 192 204 221 224 236 232 234 236 245 252 265 271 278 279 280 286 287 288 290 286 291 297 298 302 297 298 301 308 306 304 301 302 300 302 303 305 300 322 311 308 300 303 303 300 305 307 303 316 303 73 123 200 180 192 198
221 231 226 230 235 242 234 229 226 228 170 50 47 48 309 225 240 258 251 245 242 239 239 249 250 251 252 252 249 248 241 251 298 218 212 215 220 229 233 241 235 240 246 256 269 274 277 283 286 289 292 291 295 294 297 302 306 305 301 297 293 293 296 295 296 299 309 309 309 302 297 295 303 305 296 289 300 301 342 105 179 230 237 199 204
230 225 231 226 222 227 241 241 241 231 99 52 41 33 1 290 239 247 254 255 252 244 242 241 248 255 261 264 269 272 263 128 221 248 264 247 206 210 227 232 238 240 236 235 242 252 268 269 278 282 281 290 290 291 298 303 307 295 294 290 292 293 294 294 294 300 301 305 295 296 299 303 302 297 302 308 308 309 292 177 192 209 232 221 205
221 220 224 219 218 225 228 228 235 207 80 58 38 29 14 348 302 239 251 255 249 250 248 244 242 238 231 246 250 249 262 265 254 260 265 262 276 254 235 235 241 228 221 225 231 234 237 254 268 272 275 274 277 284 290 292 291 291 294 293 298 295 294 294 301 292 288 291 289 303 296 294 306 312 307 307 304 294 282 140 177 204 229 229 205
205 197 199 209 210 216 217 204 234 130 85 55 38 13 9 337 345 253 246 251 256 257 252 242 245 253 246 238 244 251 239 239 44 31 320 299 285 277 273 275 268 275 271 251 235 228 216 227 242 255 262 262 265 274 276 276 279 284 288 293 294 291 289 290 284 277 278 273 274 279 289 299 307 303 308 312 312 308 307 183 191 197 211 222 203
194 167 173 207 208 224 227 223 198 118 71 28 13 356 346 338 313 243 234 232 251 253 230 249 252 253 252 264 258 253 246 77 42 39 18 315 288 277 279 278 282 279 282 300 300 281 286 290 289 292 298 319 332 310 306 306 305 295 292 287 284 283 284 286 284 290 292 299 298 295 289 288 295 301 310 313 312 305 311 305 189 194 197 209 208
138 165 185 191 203 216 199 219 173 87 66 28 11 1 350 341 294 236 237 247 230 247 239 195 222 223 248 286 298 283 78 67 30 18 8 329 290 283 282 286 290 296 285 292 258 253 252 247 253 267 275 276 278 287 288 287 281 295 299 290 278 279 284 286 288 292 297 306 308 306 304 296 298 302 307 310 311 307 297 290 286 184 196 193 207
154 158 148 135 128 93 87 4 87 94 76 40 18 11 2 353 322 282 231 244 236 228 223 227 232 219 92 76 342 355 61 61 29 16 354 320 291 289 291 293 293 291 294 298 298 294 247 249 252 255 256 258 261 261 265 265 266 253 255 267 278 287 287 287 288 291 295 300 302 318 306 292 307 308 307 309 306 295 296 308 314 286 181 199 208
29 18 349 137 135 118 94 72 82 86 74 50 29 20 16 10 348 266 266 256 251 239 232 217 220 137 109 85 67 65 58 50 33 13 345 335 313 300 297 295 292 292 300 311 311 308 308 305 291 283 275 257 248 249 243 236 242 230 232 251 272 276 278 282 286 291 289 287 311 358 296 303 307 308 311 311 306 306 306 305 304 303 290 283 253